Time,TemperatureF,DewpointF,PressureIn,WindDirection,WindDirectionDegrees,WindSpeedMPH,WindSpeedGustMPH,Humidity,HourlyPrecipIn,Conditions,Clouds,dailyrainin,SoftwareType,DateUTC
2013-02-02 00:05:00,13.1,6.0,30.27,SSW,213,10.0,-999.0,73,-99.99,,,0.00,weatherlink.com 1.10,2013-02-02 05:05:00,
2013-02-02 00:20:00,13.1,6.0,30.26,SSW,213,6.0,-999.0,74,-99.99,,,0.00,weatherlink.com 1.10,2013-02-02 05:20:00,
2013-02-02 00:35:00,13.3,6.0,30.26,SSW,213,7.0,-999.0,74,-99.99,,,0.00,weatherlink.com 1.10,2013-02-02 05:35:00,
2013-02-02 00:50:00,13.5,7.0,30.26,SW,215,7.0,-999.0,74,-99.99,,,0.00,weatherlink.com 1.10,2013-02-02 05:50:00,
2013-02-02 01:05:00,13.8,7.0,30.25,SSW,212,9.0,-999.0,74,-99.99,,,0.00,weatherlink.com 1.10,2013-02-02 06:05:00,
2013-02-02 01:20:00,14.3,7.0,30.25,SW,221,7.0,-999.0,72,-99.99,,,0.00,weatherlink.com 1.10,2013-02-02 06:20:00,
2013-02-02 01:35:00,14.8,8.0,30.24,SW,216,10.0,-999.0,73,-99.99,,,0.00,weatherlink.com 1.10,2013-02-02 06:35:00,
2013-02-02 01:50:00,15.1,8.0,30.23,SW,222,10.0,-999.0,73,-99.99,,,0.00,weatherlink.com 1.10,2013-02-02 06:50:00,
2013-02-02 02:05:00,15.4,8.0,30.22,SW,221,9.0,-999.0,73,-99.99,,,0.00,weatherlink.com 1.10,2013-02-02 07:05:00,
2013-02-02 02:20:00,15.6,8.0,30.22,SSW,208,10.0,-999.0,73,-99.99,,,0.00,weatherlink.com 1.10,2013-02-02 07:20:00,
2013-02-02 02:35:00,16.1,9.0,30.23,SW,221,7.0,-999.0,74,-99.99,,,0.00,weatherlink.com 1.10,2013-02-02 07:35:00,
2013-02-02 02:50:00,16.1,9.0,30.23,SW,229,7.0,-999.0,74,-99.99,,,0.00,weatherlink.com 1.10,2013-02-02 07:50:00,
2013-02-02 03:20:00,16.2,10.0,30.22,SSW,211,8.0,-999.0,77,-99.99,,,0.00,weatherlink.com 1.10,2013-02-02 08:20:00,
2013-02-02 03:35:00,16.1,11.0,30.21,WSW,239,10.0,-999.0,80,-99.99,,,0.00,weatherlink.com 1.10,2013-02-02 08:35:00,
2013-02-02 03:50:00,16.1,11.0,30.21,SW,220,9.0,-999.0,81,-99.99,,,0.00,weatherlink.com 1.10,2013-02-02 08:50:00,
2013-02-02 04:05:00,15.9,11.0,30.20,SW,219,7.0,-999.0,82,-99.99,,,0.00,weatherlink.com 1.10,2013-02-02 09:05:00,
2013-02-02 04:20:00,15.9,12.0,30.20,SW,221,10.0,-999.0,84,-99.99,,,0.00,weatherlink.com 1.10,2013-02-02 09:20:00,
2013-02-02 04:35:00,16.1,12.0,30.18,SSW,211,13.0,-999.0,85,-99.99,,,0.00,weatherlink.com 1.10,2013-02-02 09:35:00,
2013-02-02 04:50:00,16.2,13.0,30.18,SSW,209,10.0,-999.0,85,-99.99,,,0.00,weatherlink.com 1.10,2013-02-02 09:50:00,
2013-02-02 05:05:00,16.5,13.0,30.17,SW,216,9.0,-999.0,84,-99.99,,,0.00,weatherlink.com 1.10,2013-02-02 10:05:00,
2013-02-02 05:20:00,16.7,13.0,30.16,SSW,201,14.0,-999.0,84,-99.99,,,0.00,weatherlink.com 1.10,2013-02-02 10:20:00,
2013-02-02 05:35:00,16.5,13.0,30.15,SSW,203,14.0,-999.0,84,-99.99,,,0.00,weatherlink.com 1.10,2013-02-02 10:35:00,
2013-02-02 05:50:00,16.7,13.0,30.13,South,190,13.0,-999.0,85,-99.99,,,0.00,weatherlink.com 1.10,2013-02-02 10:50:00,
2013-02-02 06:05:00,16.9,13.0,30.12,SSW,207,12.0,-999.0,84,-99.99,,,0.00,weatherlink.com 1.10,2013-02-02 11:05:00,
2013-02-02 06:21:00,17.2,13.0,30.11,SSW,192,18.0,-999.0,84,-99.99,,,0.00,weatherlink.com 1.10,2013-02-02 11:21:00,
2013-02-02 06:35:00,17.3,13.0,30.11,SSW,204,11.0,-999.0,83,-99.99,,,0.00,weatherlink.com 1.10,2013-02-02 11:35:00,
2013-02-02 06:51:00,17.5,13.0,30.11,SSW,202,15.0,-999.0,83,-99.99,,,0.00,weatherlink.com 1.10,2013-02-02 11:51:00,
2013-02-02 07:05:00,17.7,13.0,30.10,SSW,211,12.0,-999.0,83,-99.99,,,0.00,weatherlink.com 1.10,2013-02-02 12:05:00,
2013-02-02 07:20:00,17.8,14.0,30.10,SSW,194,10.0,-999.0,83,-99.99,,,0.00,weatherlink.com 1.10,2013-02-02 12:20:00,
2013-02-02 07:36:00,18.0,14.0,30.10,SSW,210,13.0,-999.0,83,-99.99,,,0.00,weatherlink.com 1.10,2013-02-02 12:36:00,
2013-02-02 07:50:00,18.3,14.0,30.10,SSW,202,12.0,-999.0,83,-99.99,,,0.00,weatherlink.com 1.10,2013-02-02 12:50:00,
2013-02-02 08:05:00,18.4,14.0,30.09,SSW,211,12.0,-999.0,83,-99.99,,,0.00,weatherlink.com 1.10,2013-02-02 13:05:00,
2013-02-02 08:20:00,18.8,15.0,30.08,SSW,205,16.0,-999.0,84,-99.99,,,0.00,weatherlink.com 1.10,2013-02-02 13:20:00,
2013-02-02 08:35:00,19.1,15.0,30.08,SW,216,12.0,-999.0,85,-99.99,,,0.00,weatherlink.com 1.10,2013-02-02 13:35:00,
2013-02-02 08:50:00,19.4,15.0,30.08,SW,214,14.0,-999.0,84,-99.99,,,0.00,weatherlink.com 1.10,2013-02-02 13:50:00,
2013-02-02 09:05:00,19.5,16.0,30.07,SW,217,8.0,-999.0,85,-99.99,,,0.00,weatherlink.com 1.10,2013-02-02 14:05:00,
2013-02-02 09:20:00,19.7,16.0,30.07,SW,221,10.0,-999.0,86,-99.99,,,0.00,weatherlink.com 1.10,2013-02-02 14:20:00,
2013-02-02 09:36:00,19.9,17.0,30.06,SW,222,12.0,-999.0,87,-99.99,,,0.00,weatherlink.com 1.10,2013-02-02 14:36:00,
2013-02-02 09:50:00,19.9,17.0,30.06,SW,223,13.0,-999.0,87,-99.99,,,0.00,weatherlink.com 1.10,2013-02-02 14:50:00,
2013-02-02 10:05:00,20.2,17.0,30.05,SW,236,11.0,-999.0,87,-99.99,,,0.00,weatherlink.com 1.10,2013-02-02 15:05:00,
2013-02-02 10:20:00,20.3,17.0,30.05,SW,229,13.0,-999.0,86,-99.99,,,0.00,weatherlink.com 1.10,2013-02-02 15:20:00,
2013-02-02 10:35:00,20.5,17.0,30.04,SW,215,12.0,-999.0,86,-99.99,,,0.00,weatherlink.com 1.10,2013-02-02 15:35:00,
2013-02-02 10:50:00,20.8,18.0,30.03,SW,214,12.0,-999.0,88,-99.99,,,0.00,weatherlink.com 1.10,2013-02-02 15:50:00,
2013-02-02 11:05:00,21.3,18.0,30.03,SSW,213,14.0,-999.0,88,-99.99,,,0.00,weatherlink.com 1.10,2013-02-02 16:05:00,
2013-02-02 11:20:00,21.6,18.0,30.02,SW,221,12.0,-999.0,87,-99.99,,,0.00,weatherlink.com 1.10,2013-02-02 16:20:00,
2013-02-02 11:35:00,22.1,19.0,30.01,SW,221,8.0,-999.0,89,-99.99,,,0.00,weatherlink.com 1.10,2013-02-02 16:35:00,
2013-02-02 11:50:00,22.1,19.0,30.01,SW,231,11.0,-999.0,88,-99.99,,,0.00,weatherlink.com 1.10,2013-02-02 16:50:00,
2013-02-02 12:05:00,22.2,19.0,30.01,WSW,238,11.0,-999.0,87,-99.99,,,0.00,weatherlink.com 1.10,2013-02-02 17:05:00,
2013-02-02 12:20:00,22.4,19.0,30.00,WSW,239,11.0,-999.0,86,-99.99,,,0.00,weatherlink.com 1.10,2013-02-02 17:20:00,
2013-02-02 12:35:00,22.7,19.0,29.99,WSW,244,14.0,-999.0,85,-99.99,,,0.00,weatherlink.com 1.10,2013-02-02 17:35:00,
2013-02-02 12:50:00,23.2,19.0,29.99,WSW,238,10.0,-999.0,84,-99.99,,,0.00,weatherlink.com 1.10,2013-02-02 17:50:00,
2013-02-02 13:05:00,23.5,19.0,29.98,WSW,240,11.0,-999.0,84,-99.99,,,0.00,weatherlink.com 1.10,2013-02-02 18:05:00,
2013-02-02 13:21:00,23.5,19.0,29.98,WSW,256,15.0,-999.0,83,-99.99,,,0.00,weatherlink.com 1.10,2013-02-02 18:21:00,
2013-02-02 13:36:00,23.6,20.0,29.98,WSW,249,12.0,-999.0,84,-99.99,,,0.00,weatherlink.com 1.10,2013-02-02 18:36:00,
2013-02-02 13:51:00,23.8,20.0,29.97,WSW,242,10.0,-999.0,85,-99.99,,,0.00,weatherlink.com 1.10,2013-02-02 18:51:00,
2013-02-02 14:06:00,23.9,20.0,29.97,WSW,252,12.0,-999.0,85,-99.99,,,0.00,weatherlink.com 1.10,2013-02-02 19:06:00,
2013-02-02 14:21:00,23.9,20.0,29.96,WSW,251,11.0,-999.0,86,-99.99,,,0.00,weatherlink.com 1.10,2013-02-02 19:21:00,
2013-02-02 14:36:00,23.9,20.0,29.96,WSW,251,10.0,-999.0,86,-99.99,,,0.00,weatherlink.com 1.10,2013-02-02 19:36:00,
2013-02-02 14:51:00,24.2,20.0,29.96,WSW,248,10.0,-999.0,85,-99.99,,,0.00,weatherlink.com 1.10,2013-02-02 19:51:00,
2013-02-02 15:06:00,24.2,20.0,29.96,WSW,244,12.0,-999.0,85,-99.99,,,0.00,weatherlink.com 1.10,2013-02-02 20:06:00,
2013-02-02 15:21:00,24.4,21.0,29.96,WSW,258,8.0,-999.0,85,-99.99,,,0.00,weatherlink.com 1.10,2013-02-02 20:21:00,
2013-02-02 15:36:00,24.5,20.0,29.96,WSW,251,10.0,-999.0,84,-99.99,,,0.00,weatherlink.com 1.10,2013-02-02 20:36:00,
2013-02-02 15:51:00,24.5,20.0,29.96,WSW,249,10.0,-999.0,82,-99.99,,,0.00,weatherlink.com 1.10,2013-02-02 20:51:00,
2013-02-02 16:06:00,24.7,20.0,29.96,WSW,250,8.0,-999.0,82,-99.99,,,0.00,weatherlink.com 1.10,2013-02-02 21:06:00,
2013-02-02 16:20:00,24.7,20.0,29.97,WSW,246,7.0,-999.0,82,-99.99,,,0.00,weatherlink.com 1.10,2013-02-02 21:20:00,
2013-02-02 16:36:00,24.5,20.0,29.97,WSW,248,11.0,-999.0,83,-99.99,,,0.00,weatherlink.com 1.10,2013-02-02 21:36:00,
2013-02-02 16:51:00,24.5,20.0,29.97,WSW,247,10.0,-999.0,83,-99.99,,,0.00,weatherlink.com 1.10,2013-02-02 21:51:00,
2013-02-02 17:06:00,24.5,20.0,29.97,WSW,250,8.0,-999.0,84,-99.99,,,0.00,weatherlink.com 1.10,2013-02-02 22:06:00,
2013-02-02 17:21:00,24.4,21.0,29.98,WSW,250,5.0,-999.0,85,-99.99,,,0.00,weatherlink.com 1.10,2013-02-02 22:21:00,
2013-02-02 17:36:00,24.4,21.0,29.98,WSW,246,7.0,-999.0,85,-99.99,,,0.00,weatherlink.com 1.10,2013-02-02 22:36:00,
2013-02-02 17:51:00,24.2,21.0,29.98,WSW,248,6.0,-999.0,86,-99.99,,,0.00,weatherlink.com 1.10,2013-02-02 22:51:00,
2013-02-02 18:06:00,24.1,21.0,29.98,WSW,247,7.0,-999.0,87,-99.99,,,0.00,weatherlink.com 1.10,2013-02-02 23:06:00,
2013-02-02 18:21:00,23.9,21.0,29.98,WSW,248,6.0,-999.0,87,-99.99,,,0.00,weatherlink.com 1.10,2013-02-02 23:21:00,
2013-02-02 18:36:00,23.8,21.0,29.99,West,260,5.0,-999.0,88,-99.99,,,0.00,weatherlink.com 1.10,2013-02-02 23:36:00,
2013-02-02 18:51:00,21.3,18.0,30.00,NNW,343,14.0,-999.0,87,-99.99,,,0.00,weatherlink.com 1.10,2013-02-02 23:51:00,
2013-02-02 19:06:00,20.8,18.0,30.00,North,355,7.0,-999.0,87,-99.99,,,0.00,weatherlink.com 1.10,2013-02-03 00:06:00,
2013-02-02 19:21:00,20.3,17.0,30.01,North,360,7.0,-999.0,87,-99.99,,,0.00,weatherlink.com 1.10,2013-02-03 00:21:00,
2013-02-02 19:36:00,20.2,17.0,30.01,NNW,346,8.0,-999.0,86,-99.99,,,0.00,weatherlink.com 1.10,2013-02-03 00:36:00,
2013-02-02 19:51:00,19.9,16.0,30.01,North,355,5.0,-999.0,84,-99.99,,,0.00,weatherlink.com 1.10,2013-02-03 00:51:00,
2013-02-02 20:06:00,19.9,16.0,30.01,North,355,5.0,-999.0,83,-99.99,,,0.00,weatherlink.com 1.10,2013-02-03 01:06:00,
2013-02-02 20:20:00,19.7,15.0,30.01,NNW,336,5.0,-999.0,83,-99.99,,,0.00,weatherlink.com 1.10,2013-02-03 01:20:00,
2013-02-02 20:36:00,19.5,15.0,30.02,NNW,336,6.0,-999.0,83,-99.99,,,0.00,weatherlink.com 1.10,2013-02-03 01:36:00,
2013-02-02 20:51:00,19.2,15.0,30.02,NNW,331,5.0,-999.0,83,-99.99,,,0.00,weatherlink.com 1.10,2013-02-03 01:51:00,
2013-02-02 21:06:00,18.9,15.0,30.02,NNW,331,5.0,-999.0,83,-99.99,,,0.00,weatherlink.com 1.10,2013-02-03 02:06:00,
2013-02-02 21:21:00,18.9,14.0,30.03,NW,315,5.0,-999.0,82,-99.99,,,0.00,weatherlink.com 1.10,2013-02-03 02:21:00,
2013-02-02 21:36:00,18.8,14.0,30.03,NW,311,1.0,-999.0,82,-99.99,,,0.00,weatherlink.com 1.10,2013-02-03 02:36:00,
2013-02-02 21:51:00,18.0,14.0,30.03,NW,311,5.0,-999.0,84,-99.99,,,0.00,weatherlink.com 1.10,2013-02-03 02:51:00,
2013-02-02 22:06:00,18.0,14.0,30.03,WNW,297,5.0,-999.0,84,-99.99,,,0.00,weatherlink.com 1.10,2013-02-03 03:06:00,
2013-02-02 22:21:00,18.1,14.0,30.03,WNW,302,1.0,-999.0,84,-99.99,,,0.00,weatherlink.com 1.10,2013-02-03 03:21:00,
2013-02-02 22:36:00,18.0,14.0,30.03,WNW,302,2.0,-999.0,84,-99.99,,,0.00,weatherlink.com 1.10,2013-02-03 03:36:00,
2013-02-02 22:51:00,18.0,14.0,30.02,WNW,302,4.0,-999.0,84,-99.99,,,0.00,weatherlink.com 1.10,2013-02-03 03:51:00,
2013-02-02 23:06:00,18.0,14.0,30.02,WNW,302,2.0,-999.0,84,-99.99,,,0.00,weatherlink.com 1.10,2013-02-03 04:06:00,
2013-02-02 23:21:00,17.7,13.0,30.02,WNW,300,1.0,-999.0,83,-99.99,,,0.00,weatherlink.com 1.10,2013-02-03 04:21:00,
2013-02-02 23:36:00,17.7,13.0,30.02,WNW,300,4.0,-999.0,82,-99.99,,,0.00,weatherlink.com 1.10,2013-02-03 04:36:00,
2013-02-02 23:51:00,18.0,13.0,30.01,NW,308,4.0,-999.0,80,-99.99,,,0.00,weatherlink.com 1.10,2013-02-03 04:51:00,